www.pogodaiklimat.ru

Погода и климат >> Архив погоды >> Антарктида >> San Martin Base


ПОГОДА в San Martin Base

  • Прогноз погоды в San Martin Base
  • Монитор погоды в San Martin Base
  • Климат города

АРХИВ ПОГОДЫ в San Martin Base

Время (UTC), дата Ветер
(напр.,м/с)
 
Видим.   Явления Облачность Т
(С)
Тd
(С)
f
(%)
Тe
(С)
Тes
(С)
Комфортность P
(гПа)
Po
(гПа)
Тmin
(С)
Tmax
(С)
R
(мм)
R24
(мм)
S
(см)
09 5.12 С 6 15 км 9/4 600 м
[Sc Ac As]
-3.8 -6.7 80 -11 -11 997.8 996.9
12 5.12 З 5 20 км 6/5 450 м
[Sc Ci fib]
-4.2 -8.4 72 -11 -10 998.0 997.0 -4.5 -1.4
15 5.12 Ю 1 20 км 6/0
[Ci fib]
-0.2 -5.9 65 -2 +9 995.8 994.9
18 5.12 ЮЗ 4 20 км 10/0
[Cs]
+1.2 -3.6 70 -3 +3 991.8 990.9
21 5.12 СВ 3 5000 м дымка 10/6 240 м
[St Ac As]
+1.4 -3.0 72 -3 -2 986.7 985.8
00 6.12 Ю 4 4000 м слабый снег 10/6 180 м
[St Ac As]
-2.4 -4.3 87 -8 -8 983.4 982.5 -5.2 +2.2 0.0
03 6.12 Ю 3 4000 м слабый снег 10/6 180 м
[St Ac As]
-2.2 -4.8 82 -7 -7 980.4 979.4
06 6.12 Ю 4 4000 м слабый снег 10/5 180 м
[St As op]
-3.0 -4.7 88 -9 -9 975.6 974.6 4
09 6.12 Ю 4 4000 м слабый снег 10/6 240 м
[St Ac As]
-2.0 -4.1 86 -8 -8 969.6 968.6
12 6.12 ЮВ 4 6000 м в посл. час снег 10/5 240 м
[St Ac As]
+2.3 -4.0 63 -2 -1 963.3 962.5 -3.5 +2.3 0.0 15
15 6.12 В 11 5000 м дымка 10/4 240 м
[St Ac As]
+1.2 -3.0 74 -7 -7 958.6 957.8
18 6.12 В 14 5000 м позёмок {метель} 10/3 540 м
[Sc Ac As]
+0.5 -3.5 75 -9 -9 955.4 954.6
21 6.12 В 15 5000 м позёмок {метель} 10/4 540 м
[Sc Ac As]
-1.3 -4.6 78 -11 -11 954.5 953.7
00 7.12 В 6 10 км {метель} 10/5 600 м
[Sc Ac As]
+0.6 -5.5 64 -6 -5 956.0 955.2 -2.0 +3.2
03 7.12 С 3 15 км 10/5 900 м
[Sc Ac As]
-0.2 -3.8 77 -5 -5 958.1 957.3
06 7.12 СВ 2 15 км 10/4 900 м
[Sc Ac As]
-1.2 -4.4 79 -5 -5 961.2 960.4
09 7.12 С 3 15 км 10/3 900 м
[Sc Ac As Cs]
-1.6 -4.9 78 -7 -6 965.0 964.1
12 7.12 З 3 20 км 10/6 180 м
[St Ac As]
-0.8 -3.6 81 -5 -5 967.6 966.8 -1.8 +0.6 10
15 7.12 СЗ 5 5000 м слабый снег 10/8 180 м
[St Ac As]
+0.4 -3.0 78 -5 -5 969.4 968.6
18 7.12 СЗ 9 5000 м в посл. час снег 10/6 240 м
[St Ac As]
-1.9 -5.6 76 -10 -10 970.9 970.0 0.0
21 7.12 СЗ 8 3000 м слабый снег 10/8 240 м
[Sc Ac As]
-2.4 -5.8 77 -10 -10 971.4 970.5
00 8.12 С 5 15 км в посл. час снег 10/4 750 м
[Sc Ac As]
-2.6 -7.6 68 -9 -9 971.2 970.2 -3.0 +1.0 0.0
03 8.12 СЗ 1 15 км 10/0
[Ac As]
-4.2 -7.1 80 -6 -6 970.6 969.7
06 8.12 ЮВ 3 20 км 6/0
[Ac As Cs]
-6.0 -10.1 73 -12 -12 968.9 968.0
09 8.12 Ю 1 20 км 9/0
[As trans Cs]
-5.6 -9.7 73 -8 -7 967.5 966.6
12 8.12 В 8 20 км 6/0
[As trans Cs]
-1.5 -6.7 68 -9 -8 966.0 965.0 -7.0 -1.5 0.0 8
15 8.12 СВ 7 20 км 9/0
[Ac trans Cs]
-0.2 -4.5 73 -7 -4 964.9 964.0
18 8.12 СВ 10 20 км 9/0
[Cs]
-0.2 -5.2 69 -8 -8 964.2 963.3
21 8.12 В 9 20 км 9/0
[Cs]
+1.0 -3.5 72 -6 -6 964.6 963.7
00 9.12 В 9 20 км 9/0
[Cs]
-1.7 -5.4 76 -10 -10 965.5 964.6 -1.7 +1.4
03 9.12 СВ 4 20 км 9/0
[Ac As Cs]
-1.5 -4.8 78 -7 -7 966.4 965.4
06 9.12 В 7 20 км 9/0
[Ac As Cs]
-2.2 -5.6 77 -10 -10 967.7 966.8
09 9.12 В 7 20 км 6/0
[Cs]
-1.6 -4.6 80 -9 -9 969.5 968.6
12 9.12 В 6 20 км 5/0
[Cs]
-0.4 -4.9 72 -7 -5 970.8 969.8 -3.4 -0.4 8
15 9.12 В 6 20 км 4/0
[Ci]
+2.0 -8.1 47 -3 0 972.2 971.3
18 9.12 СВ 6 20 км 3/0
[Ac As]
+2.4 -9.4 41 -3 0 973.0 972.1
21 9.12 В 6 20 км 1/0
[Ci]
+2.0 -8.1 47 -3 -1 974.0 973.0
00 10.12 В 6 20 км 3/0
[Ci fib]
-0.2 -6.7 62 -6 -6 975.2 974.2 -1.0 +3.8
03 10.12 В 2 20 км 3/0
[Ci fib]
-3.6 -6.8 78 -8 -8 976.6 975.7
06 10.12 ЮВ 2 20 км 5/0
[Ci fib]
-4.7 -8.1 77 -8 -8 978.1 977.2
09 10.12 В 2 20 км 10/3 750 м
[Sc Ac As Cs]
-3.7 -6.5 81 -8 -7 979.5 978.6
12 10.12 С 2 20 км 10/0
[Ac As Cs]
-2.8 -6.3 77 -6 -2 980.9 980.0 -5.6 0.0 8
15 10.12 СЗ 7 15 км 10/3 600 м
[Sc Ac As Cs]
-2.0 -5.3 78 -10 -9 982.2 981.3
18 10.12 С 6 15 км 10/5 600 м
[Sc Ac As]
-1.8 -5.2 78 -9 -8 984.1 983.2
21 10.12 С 4 15 км 10/4 600 м
[Sc Ac As]
-1.2 -5.1 75 -7 -6 985.2 984.2
00 11.12 С 3 4000 м слабый снег 10/6 750 м
[Sc Ac As]
-1.6 -4.6 80 -6 -6 985.7 984.8 -3.2 -1.0 0.0
03 11.12 СЗ 6 20 км в посл. час снег 9/6 750 м
[Cu Sc Ac As]
-2.8 -5.2 84 -10 -10 986.8 985.8
06 11.12 СЗ 2 20 км {снег} 10/4 750 м
[Sc Ac As]
-2.8 -5.9 79 -6 -6 987.0 986.1
09 11.12 ЮВ 1 20 км 10/5 750 м
[Sc Ac As]
-1.0 -3.5 83 -3 -3 987.2 986.2
12 11.12 ЮВ 3 20 км 9/0
[Ac As]
-2.0 -4.8 81 -7 -5 987.1 986.2 -3.8 -0.8 0.0 8
15 11.12 Ю 1 20 км 10/0
[Ac As]
+0.3 -6.3 61 -1 +3 987.0 986.1
18 11.12 Ю 2 20 км 10/0
[Ac As]
+0.6 -4.4 69 -3 +1 986.9 986.0
21 11.12 В 2 20 км 10/0
[Ac As]
+1.3 -6.1 58 -1 +1 986.4 985.4
00 12.12 Ю 2 20 км 10/4 750 м
[Sc Ac As]
+0.2 -5.0 68 -2 -2 985.7 984.8 -2.0 +1.5
03 12.12 В 3 20 км 10/3 750 м
[Sc Ac As]
-0.8 -3.6 81 -6 -6 984.8 983.8

 

Местоположение метеостанции San Martin Base (Антарктида): широта -68.11 долгота -67.13 высота над уровнем моря 4 м.

В архиве по умолчанию представлена погода в San Martin Base за последнюю неделю. Архивные данные за месяц целиком и за предыдущие месяцы, начиная с января 2011 года, Вы можете получить, выбрав интересующий диапазон дат из раскрывающегося списка и нажав кнопку "Ввод!".


*Определитесь, кто Вы:
робот инопланетянин человек

Внимание! Время в таблицах - всемирное. Для получения местного времени необходимо прибавить поправку, которая в San Martin Base равна 0 ч.

Смотрите также архив погоды в соседних городах и на ближайших метеорологических станциях:

Погода в Rothera (Антарктида) (74 км)
Погода в Larsen Ice Shelf (Антарктида) (267 км)
Погода в Vernadsky (Антарктида) (342 км)
Погода в Fossil Bluff (Антарктида) (361 км)
Погода в Palmer Station (Антарктида) (396 км)
Погода в Butler Island (Антарктида) (525 км)
Погода в Marambio Base (Антарктида) (635 км)
Погода в Bernardo o`Higgins (Антарктида) (679 км)
Погода в Juan Carlos Island (Антарктида) (681 км)
Погода в Esperanza Base (Антарктида) (698 км)

Пояснения к столбцам:

Ветер - указаны скорость ветра в м/с - средняя за 10 мин, порывы в срок и между сроками (в фигурных скобках) и направление, откуда дует ветер: С - северный, СВ - северо-восточный, В - восточный, ЮВ - юго-восточный, Ю - южный, ЮЗ - юго-западный, З - западный, СЗ - северо-западный.
Видимость - горизонтальная дальность видимости в метрах или километрах. При видимости от 1 до 10 км при отсутствии осадков обычно наблюдается дымка, при ухудшении видимости до 1 км и менее - туман. В сухую погоду видимость может ухудшаться дымом, пылью или мглою.
Явления - указаны атмосферные явления, наблюдавшиеся в срок или в последний час перед сроком; фигурными скобками обозначены явления, наблюдавшиеся между сроками (за 1-3 часа до срока); квадратными скобками обозначены град или гололедные отложения с указанием их диаметра в мм.
Облачность - указаны через наклонную черту общая и нижняя облачность в баллах и высота нижней границы облаков в метрах; квадратными скобками обозначены формы облаков: Ci - перистые, Cs - перисто-слоистые, Cc - перисто-кучевые, Ac - высококучевые, As - высокослоистые, Sc - слоисто-кучевые, Ns - слоисто-дождевые, Cu - кучевые, Cb - кучево-дождевые. Подробнее классификацию облаков см. в Атласе облаков (PDF).
T - Температура воздуха - температура, измеренная на высоте 2 м над землей.
Td - Температура точки росы - температура, при понижении до которой содержащийся в воздухе водяной пар достигнет насыщения.
f - Относительная влажность воздуха - влажноcть воздуха, измеренная на высоте 2 м над землей.
Te - Эффективная температура - температура, которую ощущает одетый по сезону человек в тени. Характеристика душности погоды. При расчете учитывается влияние влажности воздуха и скорости ветра на теплоощущения человека.
Tes - Эффективная температура на солнце - температура, которую ощущает человек, с поправкой на солнечный нагрев. Характеристика знойности погоды. Зависит от высоты солнца над горизонтом, облачности и скорости ветра. Ночью, в пасмурную погоду, а также при ветре 12 м/с и более поправка равна нулю.
P - Атмосферное давление - приведенное к уровню моря атмосферное давление.
Po - Атмосферное давление - измеренное на уровне метеостанции атмосферное давление.
Tmin - Минимальная температура - минимум температуры воздуха на высоте 2 м над землей.
Tmax - Максимальная температура - максимум температуры воздуха на высоте 2 м над землей.
R - Количество осадков - Количество выпавших осадков за период времени, мм. При наведении курсора мыши на число - период времени, за который выпало указанное количество осадков.
R24 - Количество осадков - Количество выпавших осадков за 24 часа, мм.
S - Снежный покров - Высота снежного покрова, см. При наведении курсора мыши на число - состояние снежного покрова и степень покрытия местности в баллах.